Location: Eitze
(52.9840°N, 9.6894°E)
Time: 06:18:57
(UTC+00:00)

Cosmos 158 Rocket - Pass Details

Date: 19 May 2025
Orbit: 694 x 787 km, 74.0° (Epoch: 14 June)

Event Time Altitude Azimuth Distance (km) Brightness Sun altitude
Rises 20:32:08 0° 201° (SSW) 3,236 6.9 -8.7°
Reaches altitude 10° 20:34:29 10° 200° (SSW) 2,323 6.2 -9.0°
Maximum altitude 20:39:47 83° 114° (ESE) 798 4.0 -9.4°
Drops below altitude 10° 20:45:11 10° 27° (NNE) 2,361 6.9 -9.9°
Sets 20:47:36 0° 27° (NNE) 3,293 7.7 -10.1°
